Theta_e
318 320 321 322 323 324 326 328 330 330 332 333 335 336 337 337 338 338 341 341 342 340 340 339 344 347 347 348 348 349 348 348 348 349 348 347 346 346 348 350 351 351 350 350 347 345 341 342 339 336 334 341
314 316 317 318 319 320 321 323 325 326 329 331 331 333 333 333 332 333 336 338 338 340 340 337 338 344 346 347 347 347 348 348 348 348 347 347 347 347 347 348 349 349 349 347 345 342 341 340 337 333 329 338
305 313 314 315 315 315 316 318 320 322 325 327 328 329 329 329 327 327 329 331 333 336 335 334 335 337 342 345 346 347 347 347 347 346 344 345 347 347 346 346 347 347 347 344 342 341 339 337 334 329 330 337
301 308 311 311 312 312 313 314 315 317 319 320 320 322 324 323 324 327 329 326 330 329 332 331 330 329 334 338 343 345 345 346 346 345 343 343 346 346 345 345 344 343 344 344 341 339 337 334 329 331 333 336
300 303 308 306 308 309 310 311 312 314 314 314 316 318 320 321 327 328 330 331 332 327 331 326 325 327 332 337 338 339 341 344 344 344 344 343 345 344 342 339 338 335 339 342 341 339 337 330 335 337 334 336
301 300 303 300 299 301 303 306 307 305 306 311 313 315 316 320 322 325 328 329 327 331 330 331 326 325 329 335 336 336 339 341 342 343 344 344 344 342 339 334 335 333 330 333 337 335 332 334 337 337 335 334
300 298 299 299 299 300 304 302 301 301 303 307 308 307 310 315 319 321 323 326 325 324 323 326 324 325 328 330 331 333 335 337 339 341 343 343 342 340 336 335 333 334 334 334 326 326 333 338 339 337 337 332
297 297 298 298 298 299 298 299 299 299 302 304 303 304 309 312 313 316 318 319 320 321 327 328 324 324 323 324 325 325 329 332 334 338 339 339 338 336 332 333 332 333 334 336 337 338 337 337 336 337 338 333
296 297 296 297 297 298 297 298 298 299 301 301 300 302 307 307 306 306 308 313 318 322 325 326 329 330 330 329 328 325 328 330 330 332 335 337 334 332 332 331 331 332 334 335 337 336 336 336 332 331 334 334
297 297 295 296 296 297 296 298 297 298 300 299 299 302 305 303 302 302 304 307 311 314 318 321 323 325 328 328 329 328 329 330 331 332 332 334 334 334 333 332 331 332 331 334 335 335 335 335 335 333 332 334
295 294 295 295 296 296 295 296 296 297 298 299 299 302 302 300 299 301 302 302 303 303 307 311 315 317 319 322 325 328 329 330 330 331 332 333 333 334 333 331 331 332 333 334 334 334 334 334 334 333 330 333
293 293 294 295 296 294 295 296 295 296 297 299 299 302 300 300 299 299 300 300 299 300 303 304 306 309 315 319 322 325 326 327 329 330 330 333 333 333 332 331 331 332 332 333 333 333 333 333 332 331 330 331
293 293 294 293 293 293 299 294 294 295 296 296 298 300 299 299 298 299 299 298 299 300 300 301 301 305 312 317 318 319 321 324 326 329 330 332 332 333 331 330 330 330 331 332 332 332 332 332 332 332 330 329
293 293 293 293 293 293 295 293 294 294 294 295 297 297 298 299 299 298 298 298 298 299 298 299 300 306 311 312 313 316 317 320 323 325 328 330 331 331 331 330 330 329 330 330 330 331 331 331 332 332 331 329
292 293 292 293 293 293 293 294 294 294 294 295 296 296 297 298 298 298 298 298 298 298 298 298 301 306 307 308 312 315 315 317 318 320 323 327 328 329 331 330 329 327 328 329 329 329 329 330 331 331 331 330
292 292 292 293 293 292 293 294 293 293 294 295 294 295 296 297 297 298 298 297 298 298 297 298 301 303 304 308 312 312 313 312 313 315 318 322 326 328 329 329 329 327 326 327 328 329 328 329 329 330 330 330
291 291 292 292 292 293 294 293 293 293 293 294 294 295 296 296 297 297 297 297 297 297 297 298 299 300 304 309 309 309 308 308 309 311 313 317 322 325 327 327 326 326 326 326 327 328 328 328 328 329 330 329
290 291 291 292 292 293 293 293 292 293 293 293 294 294 295 295 296 296 297 297 296 296 296 297 298 300 304 306 306 306 305 305 307 308 310 312 316 318 322 324 323 324 324 325 326 326 327 326 327 328 328 328
290 291 291 291 291 292 292 293 292 292 293 293 293 294 294 295 295 296 296 296 296 296 296 297 298 300 303 304 304 303 303 304 305 307 308 310 312 314 319 323 321 323 323 323 324 325 326 325 326 327 328 328
290 290 290 291 293 292 292 292 292 292 292 293 293 293 293 294 294 295 295 295 295 295 296 297 297 299 302 302 302 302 302 303 304 305 306 308 310 310 312 317 321 321 321 321 322 324 325 325 324 326 327 327
289 290 290 290 291 291 291 291 291 291 292 292 292 292 293 293 294 294 294 295 295 296 296 296 297 299 300 301 301 301 301 302 303 304 305 306 307 309 310 311 315 320 320 320 321 323 324 325 324 325 326 326
289 289 289 289 290 291 290 291 291 291 291 292 292 292 292 293 293 294 294 294 295 295 296 297 297 298 299 300 300 300 301 301 302 303 304 304 306 307 307 307 308 315 319 319 320 321 322 324 324 324 325 325
288 288 288 289 289 289 290 290 290 291 291 291 292 292 292 293 293 293 293 294 295 295 295 295 296 297 298 299 300 300 300 300 300 301 303 304 304 305 305 305 306 309 316 317 318 320 321 323 323 325 325 323
287 287 287 286 288 288 288 289 289 290 290 290 290 291 291 292 292 293 293 293 293 294 294 295 295 297 298 299 299 299 299 299 299 299 301 302 303 303 303 305 305 307 312 315 315 314 319 321 323 323 322 322
285 285 285 286 286 285 286 286 287 288 288 288 289 289 290 290 290 290 290 290 290 291 293 294 295 296 297 298 299 299 299 299 299 300 301 302 303 302 301 301 303 305 307 310 312 314 315 318 321 320 320 319
285 285 285 285 284 284 284 285 285 285 286 287 288 288 289 289 288 288 288 289 289 289 289 291 293 295 296 297 298 299 299 299 299 300 300 301 301 302 301 300 302 304 305 303 307 309 309 312 313 314 317 317
284 285 285 284 284 284 284 285 285 285 285 286 286 286 287 287 287 288 287 288 288 288 288 288 289 292 295 297 298 298 298 298 298 298 298 299 299 299 301 300 302 302 304 301 305 310 308 304 304 305 308 311
285 285 285 284 284 284 284 283 285 284 284 285 284 284 285 286 286 287 287 287 287 287 287 287 287 289 293 296 297 298 297 297 297 297 297 298 299 300 297 298 298 301 302 302 303 302 305 306 306 303 305 308
284 284 283 283 283 283 283 283 282 282 282 282 283 283 283 284 285 285 285 285 286 286 286 286 286 287 291 295 296 297 297 297 297 296 297 298 298 299 298 297 298 299 301 300 301 301 305 303 303 305 307 309
283 282 281 281 280 279 279 279 279 279 279 280 280 280 282 282 283 283 283 284 284 285 286 285 286 287 290 293 295 296 297 297 296 296 296 297 298 299 300 299 298 297 299 300 299 300 302 309 305 306 308 308
283 281 281 280 280 279 279 278 279 280 280 280 280 281 280 281 282 282 282 282 284 285 285 286 286 287 290 293 294 295 295 295 295 295 296 298 298 300 300 301 298 298 297 299 299 299 301 301 308 311 308 304
Wind_Speed
19 21 22 22 23 23 23 23 23 23 21 21 21 20 18 17 16 17 18 17 16 16 22 22 16 14 14 14 15 15 16 16 15 15 14 13 14 14 13 11 10 9 10 13 14 15 17 18 17 17 17 8
16 19 21 22 22 22 23 23 24 24 22 20 19 18 17 17 16 15 15 17 18 19 16 17 22 20 17 15 16 16 15 14 15 15 13 12 13 14 14 12 11 11 10 13 15 15 18 19 16 17 17 8
12 18 20 21 22 23 24 23 23 23 22 20 17 15 16 17 16 15 14 13 14 18 17 18 19 18 18 19 17 16 17 16 16 15 14 14 13 14 14 13 12 12 12 13 15 16 17 18 15 17 15 13
13 15 21 19 21 21 23 22 23 22 20 21 21 20 18 16 14 12 11 13 11 11 15 17 17 14 18 21 19 18 17 17 17 16 16 16 16 17 15 14 13 13 12 14 16 18 19 19 16 10 9 13
12 13 18 13 16 19 21 21 21 20 19 18 16 18 19 18 12 10 9 11 11 14 10 13 16 17 20 22 18 17 19 19 19 18 18 18 18 18 16 14 14 14 13 15 18 19 19 19 13 7 3 9
8 10 12 12 13 12 15 14 18 15 14 15 12 17 16 14 12 10 10 10 11 10 12 12 15 16 18 23 20 18 21 20 18 19 19 18 19 18 17 17 10 8 11 16 18 19 20 15 10 7 8 6
8 9 8 10 10 10 12 13 14 13 13 11 13 14 13 11 11 13 11 10 13 12 14 15 17 17 17 18 22 20 20 20 20 20 20 19 19 19 20 13 8 7 6 7 15 17 15 10 9 8 9 10
7 7 7 7 8 9 10 10 11 11 12 11 11 12 12 11 12 13 13 14 16 14 10 10 14 15 16 18 18 23 18 18 20 20 20 19 20 17 11 8 7 7 5 6 7 8 9 8 9 9 10 11
7 7 6 6 6 7 8 9 10 10 10 11 13 12 10 11 12 12 12 13 12 10 11 11 11 11 9 7 9 13 12 11 11 12 11 11 12 10 10 8 7 7 7 6 7 8 8 8 6 7 7 8
6 7 7 7 7 6 7 8 9 9 9 10 11 10 10 10 11 12 11 12 13 14 12 12 11 12 12 10 10 8 9 9 10 10 10 11 11 10 9 9 7 7 7 8 7 7 8 8 8 9 10 9
6 6 5 5 6 7 7 7 7 8 9 9 10 9 9 10 10 10 10 11 12 13 13 13 11 12 11 12 11 11 10 11 11 11 10 10 11 11 11 11 9 9 9 9 9 9 8 8 8 8 8 9
5 5 6 6 5 5 7 7 6 7 7 8 9 8 9 9 9 9 10 11 11 12 12 13 13 12 12 11 11 11 12 12 11 11 11 12 11 12 12 11 11 10 10 9 9 9 9 8 8 9 9 10
4 5 6 6 6 7 7 7 7 8 7 6 6 6 7 7 9 9 9 10 10 11 11 12 14 13 12 11 11 11 12 12 13 12 11 12 12 11 12 11 11 10 10 9 9 10 10 10 9 10 10 10
6 7 8 8 8 8 8 7 8 7 7 7 6 7 6 7 7 8 9 10 10 10 11 12 13 13 13 12 11 11 12 12 13 14 12 12 14 15 12 12 12 10 11 11 10 10 10 11 11 10 12 12
6 7 8 9 8 8 9 11 10 9 9 8 7 8 7 7 7 8 8 10 10 9 10 11 11 12 13 13 11 10 12 11 13 15 16 14 12 11 12 13 11 10 11 11 10 10 11 10 10 11 11 12
6 7 6 6 6 7 7 7 8 9 9 10 9 9 8 7 7 8 9 10 10 9 10 10 10 11 11 12 11 10 11 13 13 13 14 16 16 17 16 15 12 12 11 11 11 10 12 11 9 10 11 12
4 5 6 6 7 7 7 7 7 8 9 9 9 9 9 9 10 9 9 10 10 11 11 11 10 10 11 10 10 12 12 14 13 13 13 15 15 15 15 14 13 11 10 11 11 11 12 11 11 11 11 11
5 7 7 8 8 9 9 8 9 9 9 9 10 9 10 10 9 9 9 9 11 11 11 11 11 10 9 9 10 11 11 11 11 13 14 14 14 13 13 15 14 12 12 11 10 11 11 11 11 10 11 12
9 9 10 10 10 10 9 10 10 11 11 11 10 10 10 10 11 10 10 11 11 12 11 11 10 11 10 9 10 9 9 10 11 11 13 12 13 14 14 16 12 12 13 12 12 12 10 11 11 11 11 12
10 9 9 9 9 9 8 8 9 10 11 12 11 11 11 10 11 11 11 11 11 12 11 11 11 10 10 10 9 9 9 9 10 11 12 12 12 13 15 15 14 11 13 12 14 12 11 11 11 11 11 12
9 11 11 11 10 10 9 10 10 10 10 11 11 11 11 11 11 11 12 12 12 12 12 11 12 10 11 10 9 9 9 9 9 10 12 13 11 10 12 15 18 16 13 14 14 13 13 13 13 12 12 12
9 9 10 10 10 9 11 10 10 10 10 10 10 11 11 11 11 11 12 12 12 12 12 12 12 11 11 10 10 9 9 10 8 9 10 13 12 10 10 12 15 17 16 14 13 14 15 15 13 13 13 11
9 9 9 8 9 10 10 9 10 11 11 11 11 11 12 12 12 12 13 13 13 12 12 12 12 12 11 9 9 9 10 9 9 9 10 12 13 12 10 10 13 16 16 15 14 15 17 15 15 13 12 11
9 9 9 11 10 9 9 11 11 11 12 12 12 13 14 13 13 12 13 14 14 14 13 13 12 12 11 10 9 10 10 9 9 11 12 12 12 14 14 10 10 12 15 12 10 9 10 12 14 15 13 13
9 10 10 9 9 11 11 12 12 11 12 13 13 15 15 14 12 14 16 16 15 16 16 15 14 13 11 10 10 10 11 10 10 10 10 11 10 11 13 13 10 10 12 15 10 7 9 10 12 13 14 14
7 7 7 9 10 10 10 10 11 13 11 12 13 13 14 14 14 15 14 14 15 16 16 17 15 14 13 11 11 11 11 10 8 9 9 8 11 8 10 12 11 10 8 12 12 10 8 10 7 6 9 12
7 6 7 8 9 10 10 8 8 10 12 12 12 14 14 15 15 16 15 15 14 13 15 16 18 16 14 13 11 11 11 10 11 8 8 9 10 12 7 9 9 10 7 10 13 14 9 8 6 4 4 5
6 7 8 7 8 9 8 10 11 10 9 10 13 14 14 13 13 15 15 15 14 14 15 17 18 18 16 14 11 11 12 12 11 9 7 8 8 9 13 8 10 7 9 8 10 14 11 8 11 8 12 11
6 8 9 9 9 7 9 8 10 12 13 12 11 12 11 13 14 15 16 17 15 15 15 18 17 18 17 14 12 10 11 11 11 10 7 8 9 10 12 14 9 10 7 10 9 11 9 6 8 13 13 14
7 8 9 11 12 14 12 12 10 10 14 16 17 15 14 14 14 12 13 14 16 17 14 17 17 18 18 15 13 11 11 11 11 11 10 9 9 11 11 11 11 12 8 7 10 12 15 14 11 14 8 15
7 8 7 7 8 8 10 13 12 10 9 9 12 13 16 13 14 14 15 16 15 13 15 15 16 17 16 15 13 12 11 12 13 12 11 9 8 11 10 10 12 11 11 8 9 10 13 18 19 9 8 14
Wind_Direction
9 9 8 7 6 3 359 355 353 351 347 343 340 336 334 330 322 317 309 298 286 279 287 292 281 267 267 263 263 261 255 251 254 259 261 254 255 253 246 240 242 247 243 236 230 229 237 235 201 192 189 195
6 8 6 6 5 2 0 357 354 350 346 344 340 334 331 330 326 319 310 300 293 286 279 271 278 278 269 262 259 262 259 256 256 255 257 259 253 248 245 242 237 237 231 230 235 229 231 236 215 181 182 201
3 5 5 5 4 2 360 357 355 351 347 343 337 333 331 326 325 320 314 303 291 287 280 277 271 278 287 272 265 260 258 256 253 249 247 251 254 250 251 249 242 236 227 224 231 229 232 236 224 201 168 198
5 2 4 2 1 360 357 356 354 352 350 343 338 335 333 330 326 324 319 311 299 280 280 278 278 271 267 279 274 263 259 255 250 246 241 240 238 243 247 249 250 243 236 234 232 230 230 235 226 208 187 187
4 359 -0 359 359 358 356 353 352 351 349 346 341 340 336 334 334 328 322 321 317 311 297 283 276 271 269 265 268 275 267 253 250 246 239 235 234 238 243 242 244 248 242 239 235 231 231 230 230 205 254 201
3 358 356 357 355 354 354 350 350 350 347 344 347 347 342 335 331 329 325 319 316 314 308 297 283 271 268 268 258 254 260 257 251 249 242 234 234 240 242 242 242 247 247 242 238 230 225 225 227 198 190 220
0 357 352 354 352 351 350 349 348 345 346 346 348 345 340 338 336 330 327 322 317 311 300 294 288 282 271 271 276 263 253 256 254 248 245 242 239 240 243 244 240 238 234 237 243 242 233 224 219 204 191 197
354 353 350 348 349 349 347 347 345 342 342 343 345 343 339 344 342 340 335 329 326 323 320 306 299 287 275 270 267 275 270 254 250 248 247 242 242 242 244 243 239 228 218 229 233 238 243 231 217 209 205 196
346 345 343 343 346 346 346 344 341 342 340 340 339 341 342 345 343 341 338 333 330 330 328 325 318 311 301 279 265 269 270 263 253 246 249 251 249 250 246 242 235 226 226 222 231 235 229 229 201 210 213 208
331 339 341 342 341 343 343 341 339 339 339 336 336 334 340 341 343 340 336 338 336 334 335 334 333 328 324 315 299 286 274 269 261 246 234 243 243 245 244 239 226 224 223 227 226 229 225 223 215 208 213 213
334 337 329 328 332 340 337 337 335 336 333 331 328 331 336 340 339 336 335 335 336 332 330 330 332 327 325 321 314 304 289 270 261 260 250 235 238 241 237 238 231 226 223 224 224 222 220 212 214 213 199 210
336 329 335 332 330 331 323 332 327 326 320 316 322 326 331 333 331 331 332 331 331 329 328 325 323 322 318 318 318 319 309 296 278 268 262 251 239 238 239 237 233 228 226 223 222 222 219 212 208 211 207 203
339 343 344 342 341 339 334 334 330 324 318 313 305 312 321 327 325 327 326 326 325 324 324 322 321 319 316 318 319 319 314 309 298 281 268 259 250 238 235 234 234 229 227 222 220 220 221 216 209 205 206 211
357 357 354 349 346 339 337 333 326 323 323 317 311 311 314 314 314 315 318 317 318 320 318 319 317 316 316 317 316 316 314 317 311 299 281 266 254 243 238 231 228 223 225 223 219 217 220 216 211 207 204 207
358 354 353 346 340 341 340 335 334 332 326 321 317 312 310 306 307 310 311 311 311 310 311 312 313 312 315 313 314 316 316 319 317 314 309 291 270 262 246 237 224 217 222 222 221 215 216 214 209 206 205 209
356 354 342 332 331 326 321 323 326 326 326 324 322 318 313 306 304 305 306 306 307 306 306 304 303 307 310 308 313 317 319 319 316 311 305 298 283 262 247 240 229 216 218 222 221 214 215 213 211 207 202 206
343 337 336 334 328 321 320 322 325 326 324 320 316 313 312 309 307 305 303 302 300 303 302 299 296 299 300 303 309 314 317 317 316 313 309 307 300 283 260 245 233 222 216 221 218 213 214 209 211 208 204 203
344 348 344 341 337 333 332 331 330 327 324 320 317 316 311 306 303 303 300 298 299 299 296 295 295 292 292 294 300 307 314 315 318 313 311 311 309 295 275 254 241 222 218 217 215 215 211 208 209 204 205 202
358 354 350 347 343 338 334 332 331 330 328 325 318 314 310 307 306 303 299 297 298 297 295 292 289 289 287 287 294 299 304 309 311 309 307 311 308 307 293 258 240 224 217 209 211 211 209 211 208 206 208 202
355 351 349 343 337 332 326 322 325 327 326 322 318 314 310 306 304 302 300 299 297 295 293 291 287 285 286 286 289 292 297 302 304 308 305 303 306 308 305 289 261 234 224 213 211 207 205 210 205 208 207 204
353 353 350 345 338 329 326 328 328 325 321 315 312 310 308 306 303 302 301 300 297 293 291 287 286 284 283 285 281 285 292 292 296 301 304 301 300 297 301 303 289 252 229 218 209 203 203 205 203 205 205 206
356 353 346 342 334 329 328 328 324 319 316 311 307 307 305 305 304 302 300 298 295 290 288 285 283 283 280 277 279 279 282 287 290 293 293 297 298 302 300 300 300 281 247 226 212 202 202 204 201 203 202 203
357 350 344 337 335 334 331 327 325 321 318 318 316 313 312 312 311 310 309 306 302 296 293 288 284 283 278 274 272 274 277 282 289 288 289 290 296 296 292 288 291 295 281 243 217 202 202 199 200 198 199 195
357 352 348 344 342 340 336 329 326 327 323 325 323 320 319 318 317 320 323 322 316 306 299 293 287 283 280 271 266 270 271 271 281 288 293 291 292 296 296 289 288 296 296 279 264 238 219 210 198 198 194 193
356 351 345 348 343 335 334 329 327 326 328 324 321 319 317 319 322 323 321 316 314 310 305 296 290 284 277 271 265 260 262 263 264 276 282 287 283 287 293 296 296 291 299 296 265 242 233 225 215 203 193 192
351 355 350 337 333 330 327 330 329 326 324 319 315 317 322 322 319 314 311 312 312 310 307 304 296 286 278 271 264 260 259 263 260 266 277 280 285 264 277 285 291 293 307 286 268 236 222 228 239 230 206 192
352 344 343 340 326 330 322 318 315 314 316 315 318 322 320 315 314 315 312 310 308 308 307 303 300 292 284 271 264 265 263 258 261 257 271 276 277 289 260 268 277 281 265 279 277 256 219 215 202 256 249 214
345 337 330 327 323 323 322 319 316 310 306 313 319 318 318 312 315 315 312 314 312 306 301 300 296 293 285 276 265 259 263 263 262 261 261 269 268 269 284 269 277 249 270 269 286 250 226 204 202 205 216 200
342 339 340 338 330 326 323 322 326 326 324 323 315 308 311 314 315 313 312 310 305 301 298 295 291 289 283 278 271 263 260 261 261 263 257 262 270 263 267 277 272 270 248 264 260 283 264 210 216 213 204 190
351 350 344 343 342 338 335 326 329 327 324 325 323 322 315 308 309 305 301 299 298 294 288 290 290 288 285 280 275 266 260 260 264 266 267 255 258 265 252 260 271 273 260 247 271 267 273 282 238 209 197 173
350 347 347 339 330 324 322 319 313 312 307 303 307 309 309 307 307 307 307 299 291 286 288 288 288 285 281 279 275 270 264 262 262 264 262 256 252 257 255 245 258 258 275 280 258 259 275 281 280 261 168 199